Regional Weather Roundup
Issued by NWS

Home | Current Version | Previous Version | Text Only | Print | Product List | Glossary On
Versions: 1 2 3 4 5 6 7 8 9 10 11 12 13 14 15 16 17 18 19 20 21 22 23 24 25 26 27 28 29 30 31 32 33 34 35 36 37 38 39 40 41 42 43 44 45 46 47 48 49 50
000
ASCA42 TJSJ 231210
RWRPR
PUERTO RICO/U.S. VIRGIN ISLANDS HOURLY WEATHER ROUNDUP
NATIONAL WEATHER SERVICE SAN JUAN PR
800 AM AST TUE MAY 23 2017

PRZ001>002-007>008-010-231300-
PUERTO RICO

CITY           SKY/WX    TMP DP  RH WIND       PRES   REMARKS
SAN JUAN LMM   MOSUNNY   82  73  74 E8        30.07R
AGUADILLA      SUNNY     79  72  78 E8        30.08R
CEIBA          CLOUDY    82  75  78 E9        30.09R
$$

VIZ001>002-231300-
U.S. VIRGIN ISLANDS

CITY           SKY/WX    TMP DP  RH WIND       PRES   REMARKS
CHARLOTTE AMA  CLOUDY    84  75  74 SE14      30.07R HX  92
CHRISTIANSTED  MOSUNNY   82  75  78 E14       30.07R
$$

HOURLY WEATHER ROUNDUP FOR THE NEWS MEDIA

CITY           SKY/WX    TMP DP  RH WIND       PRES   REMARKS
ORLANDO        MOSUNNY   76  74  93 S8        29.95R
NEW YORK       PTSUNNY   61  55  81 VRB7      29.96S
NEWARK         CLOUDY    58  52  80 N9        29.95F
CHICAGO        CLOUDY    59  52  77 SW10      29.81R
HARTFORD       PTSUNNY   57  55  93 N5        29.91F
BOSTON         CLOUDY    55  52  89 NW8       29.94F
DALLAS         CLOUDY    64  61  90 SE8       29.87R
PHILADELPHIA   CLOUDY    63  53  70 N7        29.96
LOS ANGELES    MOCLDY    59  56  89 CALM      29.94S
WASHINGTON DC  CLOUDY    59  51  75 NE5       29.95F


USA.gov is the U.S. government's official web portal to all federal, state and local government web resources and services.